Location: Chèvreville
(49.1099°N, 2.8495°E)
Time: 14:11:43
(UTC+00:00)

BlueWalker 3 - Pass Details

Date: 22 January 2026
Orbit: 451 x 461 km, 53.2° (Epoch: 16 February)

Event Time Altitude Azimuth Distance (km) Brightness Sun altitude
Rises 18:19:50 0° 222° (SW) 2,447 6.3 -17.8°
Reaches altitude 10° 18:22:01 10° 215° (SW) 1,577 5.1 -18.1°
Maximum altitude 18:25:21 40° 144° (SE) 679 2.3 -18.7°
Enters shadow 18:25:25 40° 142° (SE) 679 2.3 -18.7°
